Total_Precipitation_Accumulation
0.85 0.80 0.77 0.75 0.73 0.75 0.75 0.71 0.67 0.62 0.55 0.52 0.47 0.41 0.36 0.31 0.28 0.25 0.21 0.20 0.20 0.25 0.39 0.62 0.88 1.12 1.31 1.48 1.59 1.49 1.43 1.29 1.04 0.89 0.87 0.95 1.01 1.07 1.09 1.16 1.16 1.06 1.05
0.85 0.82 0.77 0.76 0.72 0.70 0.72 0.72 0.69 0.63 0.54 0.48 0.43 0.41 0.40 0.37 0.34 0.31 0.27 0.27 0.25 0.26 0.33 0.47 0.68 0.99 1.25 1.43 1.61 1.73 1.60 1.57 1.41 1.13 0.97 0.95 0.99 1.04 1.08 1.16 1.23 1.21 1.14
0.80 0.84 0.83 0.78 0.71 0.67 0.67 0.69 0.73 0.75 0.67 0.57 0.50 0.44 0.41 0.38 0.35 0.32 0.31 0.31 0.31 0.30 0.32 0.41 0.51 0.73 1.07 1.36 1.55 1.78 1.82 1.69 1.70 1.58 1.32 1.12 1.06 1.06 1.11 1.18 1.24 1.31 1.27
0.83 0.86 0.88 0.84 0.78 0.73 0.69 0.66 0.66 0.69 0.69 0.65 0.60 0.56 0.49 0.44 0.37 0.32 0.29 0.29 0.34 0.35 0.35 0.37 0.44 0.57 0.85 1.19 1.52 1.76 2.14 2.01 1.89 1.95 1.89 1.57 1.29 1.20 1.22 1.27 1.32 1.39 1.42
0.85 0.88 0.91 0.88 0.85 0.83 0.79 0.74 0.69 0.63 0.61 0.60 0.57 0.55 0.51 0.49 0.48 0.45 0.38 0.31 0.29 0.34 0.38 0.40 0.43 0.47 0.63 0.95 1.30 1.65 2.14 2.48 2.30 2.22 2.28 2.18 1.82 1.53 1.43 1.46 1.51 1.54 1.60
0.89 0.87 0.88 0.89 0.90 0.87 0.83 0.78 0.74 0.67 0.60 0.57 0.58 0.57 0.51 0.46 0.44 0.42 0.41 0.37 0.32 0.31 0.38 0.44 0.45 0.42 0.45 0.62 0.93 1.39 1.85 2.35 2.60 2.49 2.46 2.51 2.38 2.09 1.86 1.75 1.72 1.78 1.83
0.96 0.91 0.90 0.90 0.90 0.88 0.80 0.74 0.73 0.74 0.71 0.67 0.70 0.67 0.59 0.50 0.47 0.45 0.43 0.40 0.35 0.32 0.34 0.43 0.50 0.46 0.40 0.44 0.57 0.85 1.36 2.03 2.58 2.80 2.78 2.70 2.69 2.52 2.26 2.06 1.93 1.98 2.08
1.04 0.98 0.90 0.91 0.91 0.88 0.83 0.75 0.71 0.72 0.71 0.71 0.75 0.79 0.71 0.63 0.53 0.43 0.41 0.39 0.35 0.34 0.36 0.38 0.47 0.52 0.49 0.43 0.39 0.51 0.79 1.40 2.14 2.72 2.99 3.05 3.02 2.98 2.73 2.45 2.24 2.21 2.31
1.07 1.05 0.95 0.89 0.92 0.93 0.88 0.79 0.72 0.70 0.69 0.63 0.63 0.83 0.87 0.66 0.47 0.39 0.38 0.38 0.37 0.35 0.35 0.37 0.42 0.48 0.53 0.52 0.47 0.48 0.55 0.88 1.52 2.31 2.87 3.14 3.25 3.39 3.31 2.93 2.67 2.53 2.56
1.08 1.02 1.00 0.96 0.90 0.88 0.85 0.81 0.75 0.71 0.71 0.70 0.65 0.63 0.68 0.67 0.66 0.49 0.35 0.34 0.36 0.38 0.38 0.37 0.39 0.45 0.50 0.57 0.58 0.60 0.61 0.69 1.09 1.68 2.41 3.02 3.38 3.68 3.88 3.50 3.06 2.86 2.80
1.15 1.09 1.03 1.02 0.97 0.89 0.83 0.82 0.82 0.80 0.79 0.77 0.71 0.63 0.59 0.53 0.55 0.65 0.47 0.34 0.36 0.36 0.38 0.41 0.42 0.46 0.50 0.56 0.60 0.64 0.72 0.73 0.95 1.33 1.84 2.59 3.24 3.82 4.33 4.19 3.49 3.02 2.86
1.21 1.09 1.03 0.99 0.97 0.91 0.82 0.79 0.81 0.84 0.84 0.79 0.72 0.67 0.67 0.66 0.57 0.62 0.58 0.41 0.39 0.37 0.39 0.44 0.48 0.50 0.52 0.57 0.60 0.69 0.75 0.81 0.91 1.12 1.40 1.91 2.60 3.25 4.06 4.43 3.93 3.29 2.91
1.23 1.12 1.02 0.94 0.89 0.87 0.85 0.81 0.82 0.81 0.82 0.85 0.83 0.74 0.68 0.63 0.60 0.66 0.72 0.61 0.53 0.45 0.44 0.46 0.47 0.54 0.58 0.61 0.63 0.70 0.71 0.79 0.90 1.03 1.16 1.36 1.81 2.54 3.38 4.27 4.52 3.88 3.32
1.13 1.12 1.10 1.00 0.88 0.82 0.83 0.87 0.86 0.83 0.82 0.85 0.83 0.80 0.75 0.64 0.65 0.73 0.82 0.92 0.88 0.62 0.52 0.47 0.45 0.50 0.57 0.65 0.68 0.72 0.67 0.78 0.88 0.98 1.08 1.18 1.34 1.80 2.62 3.59 4.53 4.60 3.93
1.12 1.16 1.14 1.11 1.04 0.94 0.87 0.87 0.87 0.86 0.89 0.87 0.85 0.84 0.85 0.77 0.74 0.75 0.80 0.97 1.24 1.08 0.65 0.47 0.46 0.50 0.58 0.66 0.74 0.73 0.71 0.76 0.85 0.97 1.10 1.18 1.25 1.46 1.85 2.50 3.40 4.35 4.54
1.06 1.17 1.22 1.16 1.16 1.13 1.04 0.95 0.90 0.88 0.92 0.93 0.93 0.93 0.92 0.91 0.91 0.87 0.87 0.93 1.07 1.21 0.91 0.47 0.43 0.47 0.60 0.71 0.82 0.81 0.82 0.91 0.90 0.98 1.07 1.13 1.17 1.29 1.50 1.87 2.44 3.32 4.20
0.99 1.07 1.18 1.20 1.20 1.21 1.17 1.11 1.03 0.98 0.97 0.96 1.00 1.05 1.03 1.01 1.08 1.04 0.98 0.95 0.97 1.08 1.08 0.57 0.43 0.45 0.65 0.85 0.91 0.91 0.96 0.93 0.86 0.91 0.99 1.05 1.11 1.22 1.40 1.63 1.96 2.51 3.34
1.01 1.04 1.15 1.28 1.27 1.24 1.21 1.18 1.14 1.14 1.17 1.12 1.05 1.07 1.10 1.12 1.15 1.14 1.13 1.04 0.94 0.90 1.00 0.83 0.56 0.57 0.70 0.87 0.93 0.96 1.03 1.01 0.93 0.96 1.00 1.08 1.16 1.24 1.39 1.55 1.76 2.04 2.64
1.07 1.05 1.12 1.27 1.32 1.32 1.27 1.19 1.17 1.21 1.28 1.35 1.31 1.28 1.22 1.22 1.24 1.19 1.19 1.15 1.05 0.95 0.93 0.95 0.76 0.67 0.74 0.84 0.97 1.04 1.07 1.08 1.07 1.11 1.06 1.09 1.20 1.27 1.36 1.47 1.60 1.80 2.08
1.05 1.06 1.08 1.15 1.28 1.38 1.44 1.44 1.44 1.37 1.36 1.39 1.41 1.42 1.38 1.39 1.36 1.31 1.31 1.27 1.23 1.23 1.17 1.16 1.02 0.86 0.83 0.86 1.04 1.22 1.29 1.16 1.15 1.14 1.14 1.14 1.22 1.28 1.34 1.34 1.31 1.48 1.74
1.07 1.05 1.06 1.05 1.14 1.41 1.76 1.73 1.63 1.55 1.42 1.31 1.25 1.25 1.31 1.47 1.53 1.61 1.66 1.55 1.52 1.62 1.58 1.50 1.31 1.13 1.02 1.06 1.18 1.27 1.48 1.42 1.30 1.21 1.21 1.14 1.17 1.17 1.17 1.22 1.26 1.41 1.62
1.17 1.11 1.05 1.03 1.07 1.30 1.77 1.84 1.53 1.30 1.17 1.14 1.12 1.04 1.05 1.25 1.34 1.48 1.63 1.66 1.73 1.89 1.98 1.91 1.64 1.39 1.13 1.09 1.20 1.42 1.63 1.80 1.71 1.33 1.32 1.33 1.29 1.32 1.22 1.17 1.26 1.35 1.50
1.20 1.16 1.07 1.00 0.96 1.05 1.48 1.60 1.41 1.13 0.98 0.94 0.95 0.94 0.92 0.98 1.12 1.10 1.27 1.39 1.46 1.64 1.87 1.98 1.94 1.52 1.26 1.15 1.42 1.61 1.67 1.79 1.70 1.47 1.53 1.71 1.53 1.45 1.34 1.30 1.32 1.25 1.34
1.25 1.19 1.10 1.02 0.98 0.94 1.29 1.48 1.36 1.02 0.87 0.79 0.79 0.77 0.76 0.81 0.95 1.12 1.24 1.25 1.19 1.29 1.57 1.77 1.93 1.75 1.53 1.48 1.72 2.00 2.12 2.12 1.92 1.72 1.69 2.01 1.80 1.64 1.55 1.44 1.36 1.22 1.23
1.16 1.14 1.09 1.00 0.96 0.94 1.15 1.47 1.47 1.09 0.91 0.78 0.76 0.75 0.71 0.69 0.96 1.22 1.22 1.16 1.05 1.08 1.26 1.55 1.77 1.86 1.91 2.02 2.18 2.48 2.65 2.61 2.44 2.08 1.86 2.03 2.03 1.92 1.78 1.68 1.49 1.29 1.18
1.12 1.12 1.10 1.01 0.95 0.91 1.07 1.45 1.63 1.19 1.00 0.88 0.80 0.76 0.85 0.89 1.08 1.17 1.10 1.15 1.20 1.08 1.04 1.12 1.22 1.34 1.43 1.59 1.92 2.20 2.45 2.60 2.56 2.51 2.06 2.00 2.13 2.18 2.40 2.00 1.58 1.25 1.11